Regional Weather Roundup
Issued by NWS

Home | Current Version | Previous Version | Graphics & Text | Print | Product List | Glossary On
Versions: 1 2 3 4 5 6 7 8 9 10 11 12 13 14 15 16 17 18 19 20 21 22 23 24 25 26 27 28 29 30 31 32 33 34 35 36 37 38 39 40 41 42 43 44 45 46 47 48 49 50
000
ASUS43 KMKX 270921
RWRWI

WISCONSIN REGIONAL WEATHER ROUNDUP
NATIONAL WEATHER SERVICE MILWAUKEE/SULLIVAN WI
400 AM CDT SUN MAY 27 2018

NOTE: "FAIR" INDICATES FEW OR NO CLOUDS BELOW 12,000 FEET WITH NO
SIGNIFICANT WEATHER AND/OR OBSTRUCTIONS TO VISIBILITY.

WIZ001-002-006>008-014>016-023>028-271000-
NORTHWEST WISCONSIN

CITY           SKY/WX    TMP DP  RH WIND       PRES   REMARKS
SUPERIOR ARPT  MOCLDY    47  47 100 CALM      29.80R FOG
ASHLAND        FOG       48  48 100 CALM      29.80R VSB 1/4
HAYWARD        FAIR      53  52  96 CALM      29.80R
SIREN          FAIR      54  50  89 CALM      29.78F
CUMBERLAND     FAIR      59  55  88 CALM      29.80S
RICE LAKE      FAIR      58  57  97 CALM      29.81S
CHETEK         FAIR      58  58 100 E6        29.79F FOG
LADYSMITH      FAIR      56  55  95 CALM      29.83R
EAU CLAIRE     FAIR      59  58  96 NE3       29.78R
MENOMONIE      FAIR      62  60  94 CALM      29.79S
NEW RICHMOND   FAIR      61  59  94 CALM      29.79S
OSCEOLA        FAIR      58  55  89 CALM      29.80F
$$

WIZ003>005-009-010-017-018-271000-
NORTH CENTRAL WISCONSIN

CITY           SKY/WX    TMP DP  RH WIND       PRES   REMARKS
MANITOWISH WTR MOCLDY    53  53 100 CALM      29.81R FOG
ARBOR VITAE    FAIR      58  56  93 CALM      29.81S FOG
WOODRUFF       FAIR      58  56  93 CALM      29.81S FOG
RHINELANDER    FAIR      56  55  97 CALM      29.82R FOG
EAGLE RIVER    FOG       55  55 100 CALM      29.80S VSB 1/2
LAND O LAKES   FOG       53  53 100 CALM      29.83R VSB 3/4
PHILLIPS         N/A     53  53 100 CALM      29.81S FOG
TOMAHAWK       FAIR      51  50  96 CALM      29.82R
MEDFORD        FAIR      58  57  97 CALM      29.82R
MERRILL        FAIR      54  54 100 CALM      29.82R FOG
$$

WIZ029-030-035-036-043>047-271000-
CENTRAL WISCONSIN

CITY           SKY/WX    TMP DP  RH WIND       PRES   REMARKS
WAUSAU         NOT AVBL
MOSINEE        FAIR      63  59  88 W3        29.82S
MARSHFIELD     FAIR      67  62  84 CALM      29.80S
STEVENS POINT  FAIR      62  59  90 S3        29.81S
WAUPACA        FAIR      67  62  86 CALM      29.79R
WAUTOMA        FAIR      62  60  93 CALM      29.80R
WISC RAPIDS    FAIR      64  61  90 CALM      29.81R
CAMP DOUGLAS   FAIR      64  63  97 CALM      29.79S
$$

WIZ011>013-019>022-031-037>040-048>050-271000-
NORTHEAST WISCONSIN

CITY           SKY/WX    TMP DP  RH WIND       PRES   REMARKS
ANTIGO         FAIR      57  56  98 CALM      29.81S
SHAWANO        FAIR      63  60  91 CALM      29.77F
OCONTO         FAIR      56  55  94 CALM      29.76S
STURGEON BAY   FAIR      63  57  81 CALM      29.78R
GREEN BAY      FAIR      63  58  83 SW3       29.78R
MANITOWOC      NOT AVBL
APPLETON       FAIR      66  57  72 W5        29.78R
CLINTONVILLE   FOG       62  61  96 CALM      29.78S VSB 1/2
OSHKOSH        FAIR      69  62  78 CALM      29.78R
$$

WIZ032>034-041-042-053>061-271000-
SOUTHWEST WISCONSIN

CITY           SKY/WX    TMP DP  RH WIND       PRES   REMARKS
LA CROSSE      FAIR      69  66  90 SE6       29.78R
SPARTA         FAIR      58  57  97 CALM      29.80S
VIROQUA        FAIR      73  65  74 CALM      29.82S
BOSCOBEL       MOCLDY    66  64  93 CALM      29.80S FOG
PRAIRIE DU CHI FAIR      67  65  94 CALM      29.79S
PLATTEVILLE    FAIR      70  66  88 SE3       29.83R
$$

WIZ056-057-062-063-064-067-068-271000-
SOUTH CENTRAL WISCONSIN

CITY           SKY/WX    TMP DP  RH WIND       PRES   REMARKS
REEDSBURG      MOCLDY    66  66 100 CALM      29.80S
BARABOO/DELLS  FAIR      73  61  65 CALM      29.81S
LONE ROCK      FAIR      66  66 100 CALM      29.80S
MINERAL POINT  FAIR      72  64  78 SE3       29.83S
MADISON        FAIR      65  63  93 CALM      29.80S
MIDDLETON      FAIR      71  62  72 CALM      29.82S
WATERTOWN      FAIR      62  62 100 CALM      29.81S
MONROE         FAIR      72  61  68 SW8       29.83R
JANESVILLE     FAIR      64  64 100 CALM      29.82R
$$

WIZ051-052-058>065-066-070>072-271000-
SOUTHEAST WISCONSIN

CITY           SKY/WX    TMP DP  RH WIND       PRES   REMARKS
MILWAUKEE      FAIR      70  60  70 SW6       29.80S
WAUKESHA       FAIR      64  59  82 CALM      29.83S
MILWAUKEE/TIMM FAIR      64  55  72 CALM      29.81S
RACINE         FAIR      68  59  73 SW3       29.82S
BURLINGTON     FAIR      62  61  96 CALM      29.82S
KENOSHA        FAIR      63  59  87 W3        29.81S
FOND DU LAC    FAIR      70  62  76 S3        29.80R
SHEBOYGAN      FAIR      59  55  87 SW6       29.79S
WEST BEND      FAIR      63  63 100 CALM      29.81S
JUNEAU         FAIR      65  61  87 SE5       29.82R
$$

LSZ147-162-271000-
LAKE SUPERIOR

STATION/POSITION TIME  TEMP    WIND        PRES    WAVE
                       AIR SEA DIR/SP/G            HT/PER
                 (UTC) (F)     (DEG/KT/KT) (MB)    (FT/S)
W MID LAKE BUOY  0850   38 36  180/  2/  2 1009.0S   1
DEVILS ISLAND    0900   46     240/  7/  8 1009.0F
SAXON HARBOR     0830   48     190/  1/  2 1008.5S
$$

LMZ867-665-643>646-271000-
LAKE MICHIGAN

STATION/POSITION TIME  TEMP    WIND        PRES    WAVE
                       AIR SEA DIR/SP/G            HT/PER
                 (UTC) (F)     (DEG/KT/KT) (MB)    (FT/S)
N MID LAKE BUOY  0900   44 38  180/  6/  8 1008.2
NORTHPORT PIER   0840   54     140/  6/  7 1008.1S
KEWAUNEE LAKESHO 0854   63      CALM  /  1 1007.6R
SHEBOYGAN LAKESH 0900   64     210/  6/  7 1008.4S
PORT WASHINGTON  0830   58      80/  2/  2 1010.2R
ATWATER BUOY     0837   56 50  130/  6/  8 1009.5R   1
MILWAUKEE LAKESH 0900   43     190/  4/  4   N/A
S MID LAKE BUOY  0850   55 40  150/  8/  8 1009.8R   0
KENOSHA   LAKESH 0900   63                 1009.5
$$

TC  - TEMPERATURE IN CELSIUS
VSB - VISIBILITY IN STATUTE MILES
WCI - WIND CHILL INDEX
HX  - HEAT INDEX





USA.gov is the U.S. government's official web portal to all federal, state and local government web resources and services.